Gwinn, MI

12:05 AM EST on December 11, 2016 (GMT -0500)
Sawyer International

Weather History for KSAW - April, 2014

Change the Weather History Date:

Saturday, April 5, 2014

  Actual Average (KESC) Record (KESC)
Temperature  
Mean Temperature 30 °F -  
Max Temperature 44 °F 39 °F 55 °F (2005)
Min Temperature 15 °F 24 °F -1 °F (1972)
Degree Days  
Heating Degree Days 36    
Moisture  
Dew Point 20 °F    
Average Humidity 73    
Maximum Humidity 88    
Minimum Humidity 39    
Precipitation  
Precipitation 0.00 in - - ()
Sea Level Pressure  
Sea Level Pressure 29.94 in    
Wind  
Wind Speed 13 mph (WNW)    
Max Wind Speed 24 mph    
Max Gust Speed 32 mph    
Visibility 9 miles    
Events Snow    
Averages and records for this station are not official NWS values.
T = Trace of Precipitation, MM = Missing Value Source: NWS Daily Summary

Daily Weather History Graph

Daily Weather History Graph

Search for Another Location

Airport or City:

Trip Planner

Search our weather history database for the weather conditions in past years. The results will help you decide how hot, cold, wet, or windy it might be!

Date:

Astronomy

Apr. 05, 2014 Rise Set
Actual Time 7:21 AM EDT 8:23 PM EDT
Civil Twilight 6:50 AM EDT 8:54 PM EDT
Nautical Twilight 6:14 AM EDT 9:31 PM EDT
Astronomical Twilight 5:35 AM EDT 10:10 PM EDT
Moon 11:16 AM EDT (4/5) 1:45 AM EDT (4/5)
Length of Visible Light 14h 03m
Length of Day
13h 02m
Waxing Crescent, 34% of the Moon is Illuminated
Apr 5
Waxing Crescent
Apr 7
First Quarter
Apr 15
Full
Apr 22
Last Quarter
Apr 29
New

Hourly Weather History & Observations

Time (EDT) Temp. Windchill Dew Point Humidity Pressure Visibility Wind Dir Wind Speed Gust Speed Precip Events Conditions
12:16 AM 24.8 °F 10.7 °F 21.6 °F 87% 29.79 in 4.0 mi North 19.6 mph 31.1 mph N/A Snow Light Snow
12:37 AM 24.6 °F 9.1 °F 20.5 °F 84% 29.80 in 5.0 mi North 24.2 mph 32.2 mph N/A   Overcast
12:56 AM 24.4 °F 9.9 °F 20.1 °F 84% 29.81 in 4.0 mi North 20.7 mph 29.9 mph N/A   Overcast
1:16 AM 24.4 °F 11.5 °F 20.3 °F 84% 29.82 in 7.0 mi North 16.1 mph 24.2 mph N/A   Overcast
1:36 AM 24.3 °F 8.6 °F 20.1 °F 84% 29.82 in 7.0 mi NNW 24.2 mph 29.9 mph N/A   Overcast
1:56 AM 23.7 °F 11.0 °F 19.8 °F 85% 29.83 in 10.0 mi North 15.0 mph - N/A   Overcast
2:17 AM 23.4 °F 9.2 °F 19.2 °F 84% 29.84 in 10.0 mi North 18.4 mph 24.2 mph N/A   Overcast
2:36 AM 23.4 °F 11.6 °F 19.0 °F 84% 29.84 in 10.0 mi North 12.7 mph - N/A   Overcast
2:57 AM 23.2 °F 12.6 °F 19.4 °F 85% 29.85 in 10.0 mi North 10.4 mph - N/A   Overcast
3:16 AM 23.4 °F 12.2 °F 19.4 °F 85% 29.86 in 10.0 mi NNW 11.5 mph 16.1 mph N/A   Overcast
3:37 AM 23.4 °F 14.3 °F 19.8 °F 86% 29.87 in 10.0 mi NW 8.1 mph - N/A   Overcast
3:56 AM 23.2 °F 14.1 °F 19.0 °F 84% 29.88 in 10.0 mi NW 8.1 mph - N/A   Overcast
4:16 AM 22.1 °F 17.4 °F 18.3 °F 85% 29.89 in 10.0 mi WNW 3.5 mph - N/A   Overcast
4:36 AM 21.0 °F 14.6 °F 17.4 °F 86% 29.90 in 10.0 mi NW 4.6 mph - N/A   Mostly Cloudy
4:56 AM 20.1 °F 13.6 °F 16.9 °F 87% 29.91 in 10.0 mi NW 4.6 mph - N/A   Scattered Clouds
5:17 AM 19.4 °F 14.3 °F 15.8 °F 86% 29.92 in 10.0 mi NW 3.5 mph - N/A   Clear
5:36 AM 18.9 °F 13.7 °F 15.8 °F 88% 29.94 in 10.0 mi NW 3.5 mph - N/A   Clear
5:57 AM 18.3 °F 13.1 °F 15.3 °F 88% 29.94 in 10.0 mi WNW 3.5 mph - N/A   Clear
6:50 AM 17.6 °F 10.7 °F 14.0 °F 86% 29.97 in 10.0 mi NW 4.6 mph - N/A   Clear
7:50 AM 15.8 °F - 12.2 °F 86% 29.99 in 10.0 mi Calm Calm - N/A   Clear
8:50 AM 17.6 °F 12.3 °F 12.2 °F 79% 30.01 in 10.0 mi WNW 3.5 mph - N/A   Clear
9:50 AM 24.8 °F 16.9 °F 12.2 °F 59% 30.03 in 10.0 mi NW 6.9 mph - N/A   Clear
10:50 AM 26.6 °F 17.5 °F 10.4 °F 51% 30.04 in 10.0 mi NNW 9.2 mph - N/A   Clear
11:45 AM 30.2 °F 23.4 °F 14.0 °F 51% 30.05 in 10.0 mi NW 6.9 mph - N/A   Clear
12:46 PM 33.8 °F 27.0 °F 17.6 °F 52% 30.05 in 10.0 mi NW 8.1 mph - N/A   Clear
1:45 PM 37.4 °F 29.3 °F 17.6 °F 45% 30.04 in 10.0 mi WNW 12.7 mph - N/A   Clear
2:45 PM 39.2 °F 34.2 °F 19.4 °F 45% 30.02 in 10.0 mi NW 6.9 mph - N/A   Clear
3:45 PM 41.0 °F 35.2 °F 19.4 °F 42% 30.01 in 10.0 mi WSW 9.2 mph - N/A   Clear
4:51 PM 42.8 °F 36.6 °F 19.4 °F 39% 29.99 in 10.0 mi SW 11.5 mph - N/A   Clear
5:50 PM 42.8 °F 37.0 °F 21.2 °F 42% 29.99 in 10.0 mi SSW 10.4 mph 16.1 mph N/A   Clear
6:50 PM 44.6 °F 38.4 °F 21.2 °F 39% 29.99 in 10.0 mi SW 12.7 mph - N/A   Clear
7:45 PM 42.8 °F 37.5 °F 23.0 °F 46% 29.98 in 10.0 mi SSW 9.2 mph - N/A   Clear
8:55 PM 35.6 °F 27.5 °F 26.6 °F 70% 29.98 in 10.0 mi SSE 11.5 mph - N/A   Clear
9:45 PM 33.8 °F 25.8 °F 26.6 °F 75% 29.99 in 10.0 mi South 10.4 mph - N/A   Clear
10:17 PM 32.0 °F 23.6 °F 26.6 °F 80% 29.99 in 10.0 mi South 10.4 mph - N/A   Clear
10:36 PM 32.0 °F 24.2 °F 26.6 °F 80% 29.99 in 10.0 mi South 9.2 mph - N/A   Clear
10:57 PM 31.5 °F 22.9 °F 26.4 °F 82% 29.99 in 10.0 mi SSW 10.4 mph - N/A   Clear
11:16 PM 32.0 °F 23.0 °F 26.1 °F 79% 29.99 in 10.0 mi SSW 11.5 mph - N/A   Clear
11:36 PM 30.9 °F 21.7 °F 25.5 °F 80% 29.99 in 10.0 mi SSW 11.5 mph - N/A   Clear
11:56 PM 30.2 °F 21.3 °F 25.0 °F 81% 29.99 in 10.0 mi SSW 10.4 mph - N/A   Clear